Other Public Products
Issued by NWS Grand Forks, ND

Home | Current Version | Previous Version | Text Only | Print | Product List | Glossary Off
Versions: 1 2 3 4 5 6 7 8 9 10 11 12 13 14 15 16 17 18 19 20 21 22 23 24 25 26 27 28 29 30 31 32 33 34 35 36 37 38 39 40 41 42 43 44 45 46 47 48 49 50

000
FPUS83 KFGF 220010
OPUFGF
PRAIRIE TO PINES WEATHER ROUNDUP
NATIONAL WEATHER SERVICE EASTERN NORTH DAKOTA/GRAND FORKS ND
700 PM CDT SAT OCT 21 2017

 **SATELLITE DATA USED TO AUGMENT SKY COVER AT AUTOMATED STATIONS**
 *****  WEATHER ACROSS EASTERN NORTH DAKOTA  *****

CITY           SKY/WX    TMP DP  RH WIND       PRES   REMARKS
GRAND FORKS    MOCLDY    55  43  63 SW16      29.58R
6HR MIN TEMP:  55; 6HR MAX TEMP:  66; 6HR PCP: TRACE;

GRAND FORKS AF CLOUDY    53  42  66 W13       29.59R
GRAND CITY NWS NOT AVBL
BUXTON         NOT AVBL
DEVILS LAKE    CLOUDY    49  39  68 W17G26    29.61R
6HR MIN TEMP:  48; 6HR MAX TEMP:  55; 6HR PCP: TRACE;

FARGO          CLOUDY    54  44  69 W16G23    29.64R
6HR MIN TEMP:  54; 6HR MAX TEMP:  62; 6HR PCP: TRACE;

WAHPETON ARPT  NOT AVBL
$$

 *****  WEATHER ACROSS CENTRAL AND WESTERN NORTH DAKOTA  *****

CITY           SKY/WX    TMP DP  RH WIND       PRES   REMARKS
JAMESTOWN      CLOUDY    50  40  68 W16       29.68R
6HR MIN TEMP:  49; 6HR MAX TEMP:  56; 6HR PCP: TRACE;

BISMARCK       CLOUDY    51  36  56 NW17      29.75R
6HR MIN TEMP:  50; 6HR MAX TEMP:  52; 6HR PCP: TRACE;

MINOT          CLOUDY    49  37  63 W23G31    29.65R
6HR MIN TEMP:  49; 6HR MAX TEMP:  51;

MINOT AFB      CLOUDY    47  36  65 NW21G32   29.63R
6HR MIN TEMP:  47; 6HR MAX TEMP:  52;

GARRISON         N/A     48  36  63 NW25G36   29.71R
6HR MIN TEMP:  47; 6HR MAX TEMP:  52;

WILLISTON      FAIR      49  31  49 NW14      29.75R
6HR MIN TEMP:  48; 6HR MAX TEMP:  53;

DICKINSON      FAIR      49  27  42 NW18      29.76R
6HR MIN TEMP:  46; 6HR MAX TEMP:  55; 6HR PCP: TRACE;

HETTINGER      MOCLDY    50  23  34 W21G29    29.83R
6HR MIN TEMP:  49; 6HR MAX TEMP:  56;

$$

 *****  OTHER OBSERVATIONS NORTHEAST NORTH DAKOTA  *****

CITY           SKY/WX    TMP DP  RH WIND       PRES   REMARKS
WALHALLA       FAIR     N/A N/A N/A W7G14     29.51R
LANGDON        CLOUDY    50  43  76 W22G29    29.53S
CAVALIER       CLOUDY    55  45  67 W12       29.53R
GRAFTON        MOCLDY    54  43  66 SW14G22   29.57R
CANDO          CLOUDY    48  39  71 W20G26    29.59R
FORT TOTTEN      N/A     49  40  71 W9        29.95
ROLLA          CLOUDY    46  39  76 W16       29.55R
RUGBY          CLOUDY    46  39  76 W16G25    29.60R
 ***** THE ABOVE OBSERVATIONS ARE NON NWS ARE NOT QUALITY
        CONTROLLED AND MAY MIS-REPORT RAIN FOR SNOW...
$$

 *****  OTHER OBSERVATIONS SOUTHEAST NORTH DAKOTA *****

CITY           SKY/WX    TMP DP  RH WIND       PRES   REMARKS
COOPERSTOWN    MOCLDY    50  43  76 W16       29.65R
VALLEY CITY    CLOUDY    50  45  81 W15       29.68R
OAKES          NOT AVBL
GWINNER        MOCLDY    50  45  81 SW15      29.71R
SHEYENNE NWR     N/A     51  43  74 W10       29.95S
BUFFALO        NOT AVBL
WYNDMERE       NOT AVBL
 ***** THE ABOVE OBSERVATIONS ARE NON NWS ARE NOT QUALITY
       CONTROLLED AND MAY MIS-REPORT RAIN FOR SNOW...
$$

  *****  WEATHER ACROSS NORTHERN MINNESOTA  *****

CITY           SKY/WX    TMP DP  RH WIND       PRES   REMARKS
FLAG ISLAND    CLOUDY    54  48  82 S9        29.50R
WARROAD        CLOUDY    59  46  63 S5        29.51S
ROSEAU         CLOUDY    57  46  67 W12G18    29.52R
HALLOCK        CLOUDY    55  43  62 W13       29.53R
THF RVR FALLS  CLOUDY    53  42  66 W13       29.58R
6HR MIN TEMP:  53; 6HR MAX TEMP:  63; 6HR PCP: TRACE;

HALSTAD        NOT AVBL
FOSSTON        FAIR      52  45  76 W10       29.59S
BAUDETTE       CLOUDY    55  52  89 SW7       29.53R
6HR MIN TEMP:  55; 6HR MAX TEMP:  66; 6HR PCP:  0.01;

WASKISH        DRIZZLE   54  54 100 SW6       29.56R
CROOKSTON      CLOUDY    55  43  62 W10       29.60R
$$
  *****  WEATHER ACROSS CENTRAL AND WEST MINNESOTA  *****

CITY           SKY/WX    TMP DP  RH WIND       PRES   REMARKS
BEMIDJI        CLOUDY    51  49  91 SW5       29.59R
6HR MIN TEMP:  51; 6HR MAX TEMP:  63; 6HR PCP:  0.01;

PARK RAPIDS    CLOUDY    51  48  89 W8        29.61R
6HR MIN TEMP:  51; 6HR MAX TEMP:  65; 6HR PCP: TRACE;

WADENA         FAIR      52  46  82 W9        29.64R
DETROIT LAKES  FAIR      52  45  76 W9        29.65R
MOORHEAD       CLOUDY    54  43  66 W12       29.65S
FERGUS FALLS   FAIR      52  43  71 W12G18    29.68R
ELBOW LAKE     FAIR      50  42  74 SW9       29.69S
6HR MIN TEMP:  50; 6HR MAX TEMP:  64;

MORRIS MN      FAIR      54  43  66 W12       29.71R
STAPLES        CLOUDY    50  48  93 SW5       29.66R
WHEATON        FAIR      52  39  62 W14       29.73R
$$
  *****  WEATHER ELSEWHERE ACROSS MINNESOTA  *****

CITY           SKY/WX    TMP DP  RH WIND       PRES   REMARKS
DULUTH         CLOUDY    61  61 100 S14       29.67S
6HR MIN TEMP:  57; 6HR MAX TEMP:  61; 6HR PCP:  0.12;

INTRNTL FALLS  CLOUDY    62  58  86 S8        29.55R
6HR MIN TEMP:  62; 6HR MAX TEMP:  64; 6HR PCP: TRACE;

ELY            CLOUDY    61  59  94 S10G26    29.65R
CLOQUET        CLOUDY    63  59  88 S8G16     29.65F
BRAINERD       LGT RAIN N/A N/A N/A W8        29.66R
6HR MIN TEMP:  58; 6HR MAX TEMP:  65; 6HR PCP:  0.18;

HIBBING        CLOUDY    61  59  93 S10       29.61R
6HR MIN TEMP:  58; 6HR MAX TEMP:  61;

ALEXANDRIA     FAIR      52  44  74 W12       29.70R
6HR MIN TEMP:  52; 6HR MAX TEMP:  68; 6HR PCP:  0.21;

SAINT CLOUD    CLOUDY    54  52  93 W12       29.70R
6HR MIN TEMP:  54; 6HR MAX TEMP:  66; 6HR PCP:  0.41;

MINNEAPOLIS    LGT RAIN  68  62  81 S13G22    29.68R
6HR MIN TEMP:  65; 6HR MAX TEMP:  69; 6HR PCP:  0.01;

$$

  *****  WEATHER ACROSS SOUTH DAKOTA  *****

CITY           SKY/WX    TMP DP  RH WIND       PRES   REMARKS
SIOUX FALLS    MOCLDY    52  40  63 W8        29.86R
6HR MIN TEMP:  51; 6HR MAX TEMP:  60; 6HR PCP: TRACE;

BROOKINGS      FAIR      48  40  73 W12       29.83R
WATERTOWN      FAIR      47  41  80 W12       29.78R
6HR MIN TEMP:  47; 6HR MAX TEMP:  56; 6HR PCP: TRACE;

HURON          FAIR      49  37  63 W8        29.83R
6HR MIN TEMP:  49; 6HR MAX TEMP:  58; 6HR PCP: TRACE;

SISSETON         N/A     51  43  74 NW7       29.73R
ABERDEEN       CLOUDY    52  41  66 W9        29.78R
6HR MIN TEMP:  47; 6HR MAX TEMP:  55; 6HR PCP: TRACE;

MITCHELL       FAIR      53  36  52 W9        29.87R
PIERRE         CLOUDY    54  36  50 NW13      29.85R
6HR MIN TEMP:  51; 6HR MAX TEMP:  59;

MOBRIDGE       CLOUDY    53  40  61 NW9       29.79R
RAPID CITY     FAIR      49  18  29 NW12      29.92R
6HR MIN TEMP:  49; 6HR MAX TEMP:  58;

$$

  *****  SOME WEATHER IN NEARBY STATES *****

CITY           SKY/WX    TMP DP  RH WIND       PRES   REMARKS
GLASGOW MT     FAIR      52  25  35 W16       29.79R
6HR MIN TEMP:  50; 6HR MAX TEMP:  56;

GREAT FALLS MT FAIR      44  19  36 SW21G32   29.87S
6HR MIN TEMP:  44; 6HR MAX TEMP:  50;

CHEYENNE WY    FAIR      42  13  30 W20G26    30.09R
6HR MIN TEMP:  42; 6HR MAX TEMP:  47;

SCOTTSBLUFF NE FAIR      52  18  26 W18G26    30.02R
6HR MIN TEMP:  52; 6HR MAX TEMP:  59;

OMAHA NE       MOCLDY    58  41  53 NW16G22   29.87R
6HR MIN TEMP:  58; 6HR MAX TEMP:  76;

DES MOINES IA  CLOUDY    69  65  86 S6        29.76S THUNDER
6HR MIN TEMP:  69; 6HR MAX TEMP:  75; 6HR PCP:  0.20;

DAVENPORT IA   MOCLDY    74  60  61 S14G23    29.92R
6HR MIN TEMP:  74; 6HR MAX TEMP:  81;

CHICAGO IL     MOCLDY    72  57  59 S18       30.00R
6HR MIN TEMP:  72; 6HR MAX TEMP:  77;

EAU CLAIRE WI  CLOUDY    67  58  72 S10       29.76R
6HR MIN TEMP:  66; 6HR MAX TEMP:  68;

LA CROSSE WI   CLOUDY    71  62  73 S8        29.79S
6HR MIN TEMP:  68; 6HR MAX TEMP:  71; 6HR PCP: TRACE;

$$

  *****  SOME NATIONAL WEATHER *****

CITY           SKY/WX    TMP DP  RH WIND       PRES   REMA



USA.gov is the U.S. government's official web portal to all federal, state and local government web resources and services.